West Bend, WI

6:15 PM CST on December 15, 2019 (GMT -0600)
West Bend Municipal

Weather History for KETB - November, 2019

Change the Weather History Date:

Monday, November 11, 2019

  Actual Average Record
Temperature  
Mean Temperature 18 °F -  
Max Temperature 24 °F 43 °F 70 °F (1927)
Min Temperature 12 °F 28 °F 4 °F (1926)
Degree Days  
Heating Degree Days 47    
Moisture  
Dew Point 13 °F    
Average Humidity 78    
Maximum Humidity 100    
Minimum Humidity 50    
Precipitation  
Precipitation 0.00 in - - ()
Sea Level Pressure  
Sea Level Pressure 30.30 in    
Wind  
Wind Speed 13 mph (NNW)    
Max Wind Speed 18 mph    
Max Gust Speed 26 mph    
Visibility 6 miles    
Events Snow    
Averages and records for this station are not official NWS values.
T = Trace of Precipitation, MM = Missing Value Source: NWS Daily Summary

Daily Weather History Graph

Daily Weather History Graph

Search for Another Location

Airport or City:

Astronomy

Nov. 11, 2019 Rise Set
Actual Time 6:40 AM CST 4:31 PM CST
Civil Twilight 6:10 AM CST 5:02 PM CST
Nautical Twilight 5:35 AM CST 5:36 PM CST
Astronomical Twilight 5:02 AM CST 6:10 PM CST
Moon 4:30 PM CST (11/11) 5:27 AM CST (11/11)
Length of Visible Light 10h 52m
Length of Day
9h 51m
Waxing Gibbous, 99% of the Moon is Illuminated
Nov 11
Waxing Gibbous
Nov 12
Full
Nov 19
Last Quarter
Nov 26
New
Dec 4
First Quarter

Hourly Weather History & Observations

Time (CST) Temp. Windchill Dew Point Humidity Pressure Visibility Wind Dir Wind Speed Gust Speed Precip Events Conditions
12:15 AM 24.8 °F 13.4 °F 21.2 °F 86% 30.22 in 3.0 mi North 12.7 mph - N/A Snow Light Snow
12:35 AM 23.0 °F 10.6 °F 21.2 °F 93% 30.23 in 2.5 mi North 13.8 mph 19.6 mph N/A Snow Light Snow
12:55 AM 23.0 °F 11.7 °F 21.2 °F 93% 30.23 in 2.5 mi North 11.5 mph - N/A Snow Light Snow
1:15 AM 23.0 °F 12.4 °F 21.2 °F 93% 30.23 in 2.0 mi North 10.4 mph - N/A Snow Light Snow
1:35 AM 23.0 °F 12.4 °F 21.2 °F 93% 30.23 in 3.0 mi North 10.4 mph - N/A Snow Light Snow
1:55 AM 23.0 °F 11.7 °F 21.2 °F 93% 30.23 in 4.0 mi North 11.5 mph - N/A Snow Light Snow
2:15 AM 21.2 °F 10.9 °F 19.4 °F 93% 30.24 in 4.0 mi NNW 9.2 mph - N/A Snow Light Snow
2:35 AM 21.2 °F 10.1 °F 19.4 °F 93% 30.24 in 4.0 mi North 10.4 mph 19.6 mph N/A Snow Light Snow
2:55 AM 21.2 °F 9.5 °F 19.4 °F 93% 30.24 in 1.5 mi North 11.5 mph - N/A Snow Light Snow
3:15 AM 21.2 °F 10.1 °F 19.4 °F 93% 30.25 in 2.5 mi North 10.4 mph 19.6 mph N/A Snow Light Snow
3:35 AM 19.4 °F 6.0 °F 19.4 °F 100% 30.26 in 1.2 mi NNW 13.8 mph - N/A Snow Light Snow
3:55 AM 19.4 °F 6.0 °F 17.6 °F 93% 30.25 in 1.5 mi North 13.8 mph - N/A Snow Light Snow
4:15 AM 19.4 °F 7.9 °F 17.6 °F 93% 30.25 in 2.0 mi North 10.4 mph 17.3 mph N/A Snow Light Snow
4:35 AM 19.4 °F 6.6 °F 17.6 °F 93% 30.26 in 3.0 mi North 12.7 mph - N/A Snow Light Snow
4:55 AM 19.4 °F 7.2 °F 17.6 °F 93% 30.27 in 2.5 mi NNW 11.5 mph - N/A Snow Light Snow
5:15 AM 19.4 °F 7.2 °F 17.6 °F 93% 30.26 in 2.5 mi North 11.5 mph - N/A Snow Light Snow
5:35 AM 19.4 °F 7.2 °F 17.6 °F 93% 30.27 in 3.0 mi North 11.5 mph - N/A Snow Light Snow
5:55 AM 19.4 °F 8.6 °F 15.8 °F 86% 30.28 in 5.0 mi North 9.2 mph 17.3 mph N/A Snow Light Snow
6:15 AM 19.4 °F 7.2 °F 15.8 °F 86% 30.28 in 4.0 mi North 11.5 mph 17.3 mph N/A Snow Light Snow
6:35 AM 19.4 °F 7.9 °F 17.6 °F 93% 30.29 in 1.8 mi NNW 10.4 mph 17.3 mph N/A Snow Light Snow
6:55 AM 19.4 °F 7.2 °F 17.6 °F 93% 30.29 in 1.2 mi NNW 11.5 mph - N/A Snow Light Snow
7:15 AM 19.4 °F 7.2 °F 17.6 °F 93% 30.30 in 1.2 mi NNW 11.5 mph 17.3 mph N/A Snow Light Snow
7:35 AM 19.4 °F 6.6 °F 17.6 °F 93% 30.31 in 0.8 mi NNW 12.7 mph 20.7 mph N/A Snow Light Snow
7:55 AM 19.4 °F 6.6 °F 15.8 °F 86% 30.31 in 1.5 mi NNW 12.7 mph 19.6 mph N/A Snow Light Snow
8:35 AM 19.4 °F 5.0 °F 17.6 °F 93% 30.31 in 1.2 mi NNW 16.1 mph 21.9 mph N/A Snow Light Snow
8:55 AM 19.4 °F 5.5 °F 15.8 °F 86% 30.32 in 2.0 mi NNW 15.0 mph 19.6 mph N/A Snow Light Snow
9:15 AM 19.4 °F 6.6 °F 15.8 °F 86% 30.32 in 1.5 mi North 12.7 mph 18.4 mph N/A Snow Light Snow
9:35 AM 19.4 °F 6.0 °F 15.8 °F 86% 30.31 in 2.0 mi NNW 13.8 mph 24.2 mph N/A Snow Light Snow
9:55 AM 19.4 °F 5.5 °F 15.8 °F 86% 30.32 in 1.2 mi North 15.0 mph 23.0 mph N/A Snow Light Snow
10:15 AM 19.4 °F 7.2 °F 15.8 °F 86% 30.32 in 1.8 mi North 11.5 mph 19.6 mph N/A Snow Light Snow
10:35 AM 19.4 °F 5.5 °F 15.8 °F 86% 30.32 in 2.0 mi NNW 15.0 mph - N/A Snow Light Snow
11:35 AM 19.4 °F 7.2 °F 15.8 °F 86% 30.30 in 1.5 mi NNW 11.5 mph 21.9 mph N/A Snow Light Snow
11:55 AM 19.4 °F 5.5 °F 15.8 °F 86% 30.29 in 2.0 mi NNW 15.0 mph 21.9 mph N/A Snow Light Snow
12:15 PM 21.2 °F 6.8 °F 14.0 °F 74% 30.29 in 4.0 mi NNW 17.3 mph 21.9 mph N/A   Haze
12:35 PM 21.2 °F 7.8 °F 14.0 °F 74% 30.28 in 7.0 mi NNW 15.0 mph 21.9 mph N/A   Overcast
12:55 PM 21.2 °F 8.9 °F 14.0 °F 74% 30.28 in 7.0 mi NNW 12.7 mph 21.9 mph N/A   Overcast
1:15 PM 21.2 °F 6.4 °F 12.2 °F 68% 30.27 in 10.0 mi NNW 18.4 mph 25.3 mph N/A   Overcast
1:55 PM 23.0 °F 9.2 °F 10.4 °F 59% 30.27 in 10.0 mi NNW 17.3 mph 24.2 mph N/A   Overcast
2:35 PM 23.0 °F 9.6 °F 8.6 °F 54% 30.27 in 10.0 mi NW 16.1 mph 25.3 mph N/A   Mostly Cloudy
2:55 PM 21.2 °F 7.8 °F 6.8 °F 54% 30.28 in 10.0 mi NNW 15.0 mph 26.5 mph N/A   Scattered Clouds
3:15 PM 23.0 °F 12.4 °F 6.8 °F 50% 30.28 in 10.0 mi NNW 10.4 mph - N/A   Mostly Cloudy
3:55 PM 21.2 °F 7.3 °F 5.0 °F 50% 30.29 in 10.0 mi NW 16.1 mph - N/A   Mostly Cloudy
4:15 PM 21.2 °F 8.3 °F 5.0 °F 50% 30.29 in 10.0 mi NW 13.8 mph 21.9 mph N/A   Mostly Cloudy
4:35 PM 19.4 °F 7.9 °F 5.0 °F 54% 30.30 in 10.0 mi NW 10.4 mph 19.6 mph N/A   Overcast
4:55 PM 19.4 °F 6.6 °F 8.6 °F 63% 30.30 in 10.0 mi NW 12.7 mph 19.6 mph N/A   Overcast
5:15 PM 19.4 °F 6.0 °F 6.8 °F 58% 30.31 in 10.0 mi NW 13.8 mph - N/A   Scattered Clouds
5:35 PM 19.4 °F 6.6 °F 6.8 °F 58% 30.32 in 10.0 mi NW 12.7 mph 19.6 mph N/A   Mostly Cloudy
5:55 PM 17.6 °F 2.7 °F 8.6 °F 68% 30.32 in 10.0 mi NW 16.1 mph 23.0 mph N/A   Overcast
6:35 PM 17.6 °F 5.7 °F 10.4 °F 73% 30.34 in 10.0 mi NW 10.4 mph 18.4 mph N/A   Scattered Clouds
6:55 PM 15.8 °F 4.2 °F 8.6 °F 73% 30.34 in 10.0 mi WNW 9.2 mph 17.3 mph N/A   Scattered Clouds
7:15 PM 15.8 °F 2.1 °F 6.8 °F 68% 30.34 in 10.0 mi NW 12.7 mph 20.7 mph N/A   Scattered Clouds
7:35 PM 15.8 °F 2.7 °F 5.0 °F 62% 30.34 in 10.0 mi WNW 11.5 mph 19.6 mph N/A   Clear
7:55 PM 14.0 °F 1.2 °F 5.0 °F 67% 30.34 in 10.0 mi WNW 10.4 mph 18.4 mph N/A   Clear
8:15 PM 14.0 °F 0.5 °F 5.0 °F 67% 30.35 in 10.0 mi NW 11.5 mph 21.9 mph N/A   Scattered Clouds
8:35 PM 14.0 °F -0.8 °F 5.0 °F 67% 30.35 in 10.0 mi NW 13.8 mph 20.7 mph N/A   Clear
9:15 PM 14.0 °F -2.5 °F 5.0 °F 67% 30.35 in 10.0 mi NW 17.3 mph 24.2 mph N/A   Overcast
9:35 PM 14.0 °F -1.4 °F 5.0 °F 67% 30.36 in 10.0 mi NW 15.0 mph 23.0 mph N/A   Overcast
9:55 PM 14.0 °F -0.8 °F 5.0 °F 67% 30.36 in 7.0 mi NW 13.8 mph 21.9 mph N/A Snow Light Snow
10:15 PM 14.0 °F 0.5 °F 5.0 °F 67% 30.36 in 10.0 mi NW 11.5 mph 19.6 mph N/A   Overcast
10:35 PM 14.0 °F -1.4 °F 5.0 °F 67% 30.37 in 10.0 mi NW 15.0 mph 18.4 mph N/A   Overcast
10:55 PM 12.2 °F -1.8 °F 3.2 °F 67% 30.37 in 10.0 mi NW 11.5 mph 18.4 mph N/A   Scattered Clouds
11:15 PM 12.2 °F -0.2 °F 3.2 °F 67% 30.37 in 10.0 mi WNW 9.2 mph - N/A   Clear
11:35 PM 12.2 °F -3.7 °F 3.2 °F 67% 30.37 in 10.0 mi NW 15.0 mph - N/A   Clear
11:55 PM 12.2 °F -3.7 °F 3.2 °F 67% 30.38 in 10.0 mi NW 15.0 mph - N/A   Clear